1535320800.72,46077,18.69,73790.5,3.87,2.73,2.51,0,*73
1535320801.95,46078,18.69,73792.8,3.89,2.73,2.51,0,*72
1535320803.18,46079,18.69,73792.3,3.87,2.61,2.47,0,*79
1535320804.38,46080,18.69,73792.8,3.89,2.61,2.47,0,*71
1535320805.62,46081,18.69,73792.3,3.87,2.73,2.47,0,*7D
1535320806.83,46082,18.69,73788.8,3.89,2.61,2.51,0,*74
1535320808.05,46083,18.69,73792.8,3.89,2.69,2.47,0,*7A
1535320809.25,46084,18.69,73788.5,3.89,2.61,2.47,0,*75
1535320810.49,46085,18.69,73794.5,3.89,2.51,2.39,0,*7E
1535320811.72,46086,18.69,73790.3,3.89,2.59,2.39,0,*75
1535320812.95,46087,18.69,73792.8,3.89,2.59,2.47,0,*7D
1535320814.15,46088,18.69,73792.3,3.89,2.61,2.47,0,*79
1535320815.35,46089,18.69,73788.0,3.89,2.61,2.47,0,*78
1535320816.59,46090,18.69,73788.0,3.87,2.69,2.47,0,*76
1535320817.82,46091,18.69,73790.3,3.89,2.73,2.51,0,*75
1535320819.03,46092,18.69,73794.0,3.89,2.61,2.51,0,*75
1535320820.28,46093,18.69,73790.3,3.87,2.81,2.51,0,*74
1535320821.51,46094,18.69,73788.5,3.95,2.81,2.61,0,*73
1535320822.74,46095,18.69,73792.8,3.89,2.81,2.59,0,*74
1535320823.99,46096,18.69,73794.3,3.87,2.81,2.59,0,*79
1535320825.23,46097,18.69,73788.3,3.89,2.81,2.51,0,*7E
1535320826.46,46098,18.69,73788.5,3.89,2.81,2.51,0,*71
1535320827.71,46099,18.69,73794.5,3.87,2.73,2.59,0,*7B
1535320828.94,46100,18.69,73792.5,3.89,2.81,2.51,0,*71
1535320830.17,46101,18.69,73794.5,3.89,2.81,2.59,0,*78
1535320831.37,46102,18.69,73794.0,3.93,2.85,2.65,0,*7B
1535320832.57,46103,18.69,73792.5,3.89,2.91,2.69,0,*78
1535320833.78,46104,18.69,73796.8,3.89,2.81,2.61,0,*76
1535320834.98,46105,18.69,73794.8,3.93,2.89,2.61,0,*74
1535320836.18,46106,18.69,73792.8,3.89,2.91,2.69,0,*7D
1535320837.39,46107,18.69,73794.3,3.89,2.85,2.61,0,*71
1535320838.58,46108,18.69,73792.3,3.89,2.91,2.61,0,*7B
1535320839.78,46109,18.69,73792.5,3.89,2.91,2.69,0,*72
1535320841.01,46110,18.69,73794.3,3.87,2.95,2.81,0,*76
1535320842.24,46111,18.69,73792.3,3.89,3.03,2.81,0,*77
1535320843.44,46112,18.69,73794.3,3.89,2.95,2.73,0,*77
1535320844.63,46113,18.69,73790.5,3.89,2.95,2.61,0,*75
1535320845.81,46114,18.69,73794.8,3.89,2.91,2.61,0,*76
1535320847.02,46115,18.69,73794.8,3.89,2.91,2.69,0,*7F
1535320848.25,46116,18.69,73792.0,3.89,3.03,2.69,0,*76
1535320849.45,46117,18.69,73792.5,3.89,2.95,2.69,0,*79
1535320850.66,46118,18.69,73794.3,3.89,3.03,2.61,0,*70
1535320851.86,46119,18.69,73794.5,3.89,2.85,2.61,0,*7E
1535320853.07,46120,18.69,73792.5,3.89,2.85,2.61,0,*74
1535320854.27,46121,18.69,73794.8,3.89,2.91,2.69,0,*78
1535320855.52,46122,18.69,73794.3,3.87,2.85,2.51,0,*7B
1535320856.74,46123,18.69,73794.0,3.93,2.77,2.55,0,*76
1535320857.92,46124,18.69,73794.8,3.89,2.91,2.61,0,*75
1535320859.13,46125,18.69,73792.0,3.89,2.91,2.69,0,*7C
1535320860.33,46126,18.69,73794.3,3.89,2.95,2.69,0,*7B
1535320861.56,46127,18.69,73794.8,3.89,3.03,2.69,0,*74
1535320862.78,46128,18.69,73794.0,3.89,3.03,2.69,0,*7B
1535320863.99,46129,18.69,73794.3,3.89,2.95,2.73,0,*7F
1535320865.22,46130,18.69,73794.5,3.89,3.03,2.81,0,*74
1535320866.46,46131,18.69,73794.5,3.89,3.07,2.81,0,*71
1535320867.67,46132,18.69,73794.5,3.89,2.91,2.73,0,*71
1535320868.87,46133,18.69,73792.8,3.89,2.91,2.69,0,*7B
1535320870.07,46134,18.69,73790.3,3.89,2.91,2.69,0,*7C
1535320871.27,46135,18.69,73792.3,3.93,2.99,2.73,0,*75
1535320872.47,46136,18.69,73792.8,3.93,2.99,2.77,0,*72
1535320873.7,46137,18.69,73792.8,3.93,3.07,2.77,0,*75
1535320874.92,46138,18.69,73792.3,3.93,3.07,2.85,0,*77
1535320876.14,46139,18.69,73794.3,3.93,3.11,2.85,0,*71
1535320877.37,46140,18.69,73792.8,3.93,3.11,2.85,0,*7F
1535320878.59,46141,18.69,73792.3,3.93,3.19,2.77,0,*7B
1535320879.81,46142,18.69,73792.0,3.93,3.11,2.85,0,*7D
1535320880.99,46143,18.69,73794.8,3.93,2.99,2.65,0,*73
1535320882.16,46144,18.69,73794.0,3.93,2.95,2.65,0,*78
1535320883.38,46145,18.69,73794.0,3.95,2.99,2.69,0,*7F
1535320884.6,46146,18.69,73790.8,3.95,2.99,2.77,0,*73
1535320885.83,46147,18.69,73792.8,3.95,2.99,2.77,0,*72
1535320887.03,46148,18.69,73794.0,3.93,2.95,2.73,0,*73
1535320888.27,46149,18.69,73792.0,3.95,3.03,2.69,0,*71
1535320889.53,46150,18.69,73798.5,3.95,3.11,2.77,0,*75
1535320890.78,46151,18.69,73796.3,3.95,3.03,2.77,0,*77
1535320891.95,46152,18.69,73798.8,3.93,2.95,2.65,0,*7F
1535320893.18,46153,18.69,73796.0,3.89,3.03,2.69,0,*77
1535320894.36,46154,18.69,73796.3,3.93,2.99,2.65,0,*75
1535320895.56,46155,18.69,73796.0,3.93,2.85,2.61,0,*7D
1535320896.78,46156,18.69,73796.3,3.93,2.89,2.55,0,*75
1535320897.99,46157,18.69,73796.3,3.93,2.85,2.55,0,*78
1535320899.17,46158,18.69,73796.5,3.93,2.95,2.61,0,*71
1535320900.34,46159,18.69,73796.3,3.93,2.95,2.65,0,*74
1535320901.55,46160,18.69,73794.3,3.89,2.85,2.61,0,*70
1535320902.78,46161,18.69,73792.3,3.89,2.81,2.51,0,*76
1535320904.02,46162,18.69,73798.0,3.89,2.81,2.51,0,*75
1535320905.25,46163,18.69,73794.5,3.89,2.81,2.51,0,*74
1535320906.48,46164,18.69,73796.8,3.89,2.73,2.51,0,*7E
1535320907.73,46165,18.69,73794.3,3.87,2.69,2.51,0,*7A
1535320908.98,46166,18.69,73792.5,3.87,2.73,2.51,0,*72
1535320910.2,46167,18.69,73796.3,3.89,2.85,2.59,0,*7C
1535320911.41,46168,18.69,73798.8,3.87,2.91,2.61,0,*73
1535320912.6,46169,18.69,73798.3,3.89,2.91,2.61,0,*7C
1535320913.82,46170,18.69,73794.3,3.87,2.85,2.61,0,*7F
1535320915.07,46171,18.69,73796.0,3.87,2.85,2.59,0,*75
1535320916.3,46172,18.69,73798.0,3.89,2.81,2.51,0,*74
1535320917.55,46173,18.69,73796.3,3.87,2.69,2.47,0,*7A
1535320918.8,46174,18.69,73798.0,3.87,2.81,2.51,0,*7C
1535320920.05,46175,18.69,73796.0,3.87,2.85,2.59,0,*71
1535320921.27,46176,18.69,73798.5,3.89,2.85,2.59,0,*7C
1535320922.53,46177,18.69,73796.5,3.87,2.81,2.51,0,*7F
1535320923.78,46178,18.69,73792.0,3.87,2.81,2.51,0,*70
1535320925.03,46179,18.69,73798.8,3.87,2.81,2.59,0,*79
1535320926.26,46180,18.69,73796.0,3.87,2.91,2.59,0,*7E
1535320927.48,46181,18.69,73796.8,3.85,2.81,2.55,0,*70
1535320928.73,46182,18.69,73796.8,3.87,2.51,2.21,0,*7F
1535320929.99,46183,18.69,73798.5,3.87,2.47,2.13,0,*78
1535320931.21,46184,18.69,73794.3,3.87,2.59,2.35,0,*74
1535320932.43,46185,18.69,73798.5,3.89,2.51,2.21,0,*76
1535320933.65,46186,18.69,73794.8,3.87,2.59,2.31,0,*72
1535320934.86,46187,18.69,73796.0,3.85,2.65,2.43,0,*7B
1535320936.03,46188,18.69,73792.5,3.85,2.65,2.35,0,*75
1535320937.23,46189,18.69,73796.5,3.85,2.59,2.35,0,*7B
1535320938.43,46190,18.69,73794.5,3.85,2.55,2.31,0,*7B
1535320939.68,46191,18.69,73794.8,3.83,2.69,2.43,0,*76
1535320940.9,46192,18.69,73798.8,3.85,2.77,2.55,0,*7B
1535320942.14,46193,18.69,73794.8,3.83,2.81,2.55,0,*75
1535320943.37,46194,18.69,73798.0,3.85,2.89,2.59,0,*70
1535320944.57,46195,18.69,73796.5,3.85,2.99,2.59,0,*70
1535320945.77,46196,18.69,73796.0,3.85,2.91,2.69,0,*78
1535320947.0,46197,18.69,73794.3,3.85,3.03,2.69,0,*73
1535320948.23,46198,18.69,73796.5,3.85,3.03,2.77,0,*73
1535320949.43,46199,18.69,73802.3,3.85,2.99,2.59,0,*7C
1535320950.6,46200,18.69,73796.8,3.85,2.99,2.65,0,*70
1535320951.8,46201,18.69,73798.5,3.85,2.99,2.69,0,*7D
1535320953.05,46202,18.69,73800.5,3.87,2.85,2.59,0,*72
1535320954.27,46203,18.69,73798.5,3.87,2.51,2.31,0,*74
1535320955.47,46204,18.69,73796.0,3.85,2.59,2.31,0,*79
1535320956.64,46205,18.69,73798.8,3.85,2.65,2.35,0,*73
1535320957.87,46206,18.69,73796.8,3.85,2.77,2.43,0,*72
1535320959.04,46207,18.69,73798.0,3.85,2.65,2.35,0,*71
1535320960.22,46208,18.69,73794.0,3.85,2.65,2.35,0,*7E
1535320961.42,46209,18.69,73794.3,3.85,2.59,2.31,0,*74
1535320962.64,46210,18.69,73798.3,3.83,2.59,2.35,0,*7E
1535320963.84,46211,18.69,73796.8,3.85,2.65,2.43,0,*77
1535320965.09,46212,18.69,73800.3,3.83,2.81,2.47,0,*7C
1535320966.32,46213,18.69,73798.5,3.85,2.81,2.55,0,*78
1535320967.57,46214,18.69,73800.0,3.83,2.81,2.47,0,*7A
1535320968.76,46215,18.69,73798.0,3.85,2.69,2.35,0,*7E
1535320970.01,46216,18.69,73798.8,3.83,2.89,2.47,0,*70
1535320971.2,46217,18.69,73798.5,3.85,2.99,2.55,0,*75
1535320972.45,46218,18.69,73800.0,3.83,2.89,2.55,0,*7D
1535320973.69,46219,18.69,73796.8,3.83,2.89,2.55,0,*7C
1535320974.94,46220,18.69,73796.0,3.83,2.81,2.55,0,*7E
1535320976.16,46221,18.69,73798.3,3.85,2.89,2.55,0,*71
1535320977.39,46222,18.69,73800.8,3.85,2.81,2.47,0,*79
1535320978.63,46223,18.69,73798.8,3.83,2.77,2.47,0,*77
1535320979.88,46224,18.69,73800.8,3.83,2.69,2.47,0,*7F
1535320981.1,46225,18.69,73798.0,3.85,2.77,2.47,0,*77
1535320982.33,46226,18.69,73798.3,3.85,2.77,2.43,0,*70
1535320983.54,46227,18.69,73798.0,3.83,2.69,2.35,0,*79
1535320984.76,46228,18.69,73802.3,3.83,2.59,2.31,0,*71
1535320986.01,46229,18.69,73798.8,3.83,2.77,2.47,0,*7D
1535320987.26,46230,18.69,73796.3,3.83,2.81,2.55,0,*7F
1535320988.5,46231,18.69,73800.3,3.83,2.77,2.47,0,*74
1535320989.75,46232,18.69,73798.8,3.83,2.77,2.47,0,*77
1535320990.99,46233,18.69,73796.8,3.83,2.77,2.55,0,*75
1535320992.24,46234,18.69,73802.3,3.83,2.69,2.47,0,*7E
1535320993.44,46235,18.69,73798.3,3.81,2.65,2.43,0,*75
1535320994.65,46236,18.69,73802.5,3.81,2.65,2.51,0,*75
1535320995.88,46237,18.69,73796.5,3.81,2.73,2.43,0,*70
1535320997.08,46238,18.69,73798.5,3.81,2.89,2.61,0,*7A
1535320998.31,46239,18.69,73796.8,3.83,2.91,2.59,0,*7B
1535320999.51,46240,18.69,73802.3,3.83,2.99,2.65,0,*72
1535321000.71,46241,18.69,73802.0,3.83,2.99,2.65,0,*73
1535321001.94,46242,18.69,73800.8,3.83,2.99,2.77,0,*73
1535321003.14,46243,18.69,73802.8,3.83,2.99,2.65,0,*71
1535321004.34,46244,18.69,73798.0,3.83,2.99,2.65,0,*76
1535321005.52,46245,18.69,73802.3,3.85,2.91,2.65,0,*79
1535321006.73,46246,18.69,73802.0,3.83,2.91,2.65,0,*7C
1535321007.93,46247,18.69,73802.5,3.83,2.99,2.65,0,*75
1535321009.15,46248,18.69,73800.0,3.83,2.99,2.77,0,*79
1535321010.4,46249,18.69,73798.5,3.83,3.03,2.69,0,*75
1535321011.63,46250,18.69,73798.8,3.83,2.99,2.77,0,*70
1535321012.85,46251,18.69,73802.8,3.83,2.99,2.77,0,*71
1535321014.08,46252,18.69,73798.8,3.85,3.03,2.77,0,*76
1535321015.33,46253,18.69,73802.0,3.83,3.03,2.69,0,*7E
1535321016.55,46254,18.69,73800.8,3.83,2.99,2.69,0,*7B
1535321017.73,46255,18.69,73802.8,3.85,2.91,2.65,0,*78
1535321018.96,46256,18.69,73804.0,3.83,2.89,2.65,0,*74
1535321020.18,46257,18.69,73806.0,3.85,2.89,2.59,0,*7C
1535321021.38,46258,18.69,73802.0,3.85,2.91,2.59,0,*7A
1535321022.61,46259,18.69,73802.8,3.83,2.99,2.59,0,*75
1535321023.83,46260,18.69,73802.0,3.83,2.89,2.65,0,*71
1535321025.08,46261,18.69,73802.8,3.83,2.89,2.59,0,*7F
1535321026.33,46262,18.69,73798.8,3.83,2.89,2.55,0,*70
1535321027.55,46263,18.69,73804.0,3.85,2.81,2.47,0,*7C
1535321028.78,46264,18.69,73798.8,3.85,2.81,2.55,0,*78
1535321029.98,46265,18.69,73802.8,3.83,2.91,2.65,0,*7D
1535321031.2,46266,18.69,73800.3,3.83,2.99,2.69,0,*7A
1535321032.42,46267,18.69,73798.8,3.83,2.99,2.69,0,*7B
1535321033.65,46268,18.69,73802.8,3.83,2.91,2.69,0,*7C
1535321034.9,46269,18.69,73800.3,3.83,2.81,2.59,0,*7F
1535321036.1,46270,18.69,73796.8,3.85,2.89,2.65,0,*76
1535321037.3,46271,18.69,73798.0,3.85,2.91,2.69,0,*72
1535321038.54,46272,18.69,73800.8,3.83,2.89,2.69,0,*7E
1535321039.77,46273,18.69,73802.0,3.83,2.91,2.59,0,*75
1535321041.02,46274,18.69,73798.5,3.83,2.89,2.59,0,*7B
1535321042.22,46275,18.69,73800.3,3.83,2.99,2.65,0,*74
1535321043.45,46276,18.69,73802.0,3.85,3.03,2.77,0,*70
1535321044.67,46277,18.69,73802.5,3.83,2.99,2.77,0,*75
1535321045.93,46278,18.69,73800.3,3.83,3.03,2.77,0,*78
1535321047.12,46279,18.69,73800.8,3.85,2.99,2.69,0,*72
1535321048.34,46280,18.69,73802.5,3.83,2.99,2.69,0,*72
1535321049.55,46281,18.69,73802.8,3.85,2.99,2.77,0,*7A
1535321050.77,46282,18.69,73802.8,3.85,3.03,2.77,0,*7B
1535321052.0,46283,18.69,73800.8,3.83,2.99,2.77,0,*7E
1535321053.23,46284,18.69,73804.5,3.85,3.11,2.69,0,*71
1535321054.48,46285,18.69,73802.0,3.83,3.03,2.77,0,*7A
1535321055.71,46286,18.69,73802.8,3.85,3.03,2.69,0,*70
1535321056.94,46287,18.75,73808.3,3.85,3.03,2.77,0,*7E
1535321058.16,46288,18.69,73800.5,3.85,3.11,2.77,0,*72
1535321059.4,46289,18.69,73800.0,3.85,3.03,2.77,0,*70
1535321060.62,46290,18.69,73798.5,3.85,3.03,2.77,0,*78
1535321061.82,46291,18.69,73802.8,3.85,2.99,2.69,0,*74
1535321063.02,46292,18.69,73804.3,3.85,2.99,2.69,0,*77
1535321064.22,46293,18.69,73802.0,3.85,2.99,2.69,0,*76
1535321065.47,46294,18.69,73804.5,3.83,3.03,2.81,0,*73
1535321066.73,46295,18.69,73800.0,3.83,3.03,2.77,0,*7B
1535321067.96,46296,18.69,73802.5,3.85,3.11,2.77,0,*7D
1535321069.19,46297,18.69,73802.8,3.85,3.11,2.77,0,*7C
1535321070.44,46298,18.69,73802.3,3.83,3.11,2.81,0,*7C
1535321071.68,46299,18.69,73800.8,3.85,3.03,2.81,0,*78
1535321072.91,46300,18.69,73800.5,3.85,3.03,2.89,0,*71
1535321074.14,46301,18.69,73802.0,3.85,3.11,2.81,0,*7B
1535321075.37,46302,18.69,73802.8,3.85,3.03,2.77,0,*72
1535321076.62,46303,18.69,73802.0,3.83,3.03,2.69,0,*7A
1535321077.82,46304,18.69,73802.8,3.85,2.91,2.77,0,*7E
1535321079.03,46305,18.69,73802.3,3.85,2.91,2.77,0,*7F
1535321080.28,46306,18.69,73806.3,3.83,2.81,2.59,0,*77
1535321081.5,46307,18.69,73806.8,3.83,2.65,2.47,0,*73
1535321082.72,46308,18.69,73806.3,3.85,2.77,2.55,0,*7A
1535321083.97,46309,18.69,73804.5,3.83,2.77,2.55,0,*7D
1535321085.19,46310,18.69,73804.8,3.85,2.81,2.55,0,*7A
1535321086.42,46311,18.69,73800.5,3.85,2.89,2.59,0,*7F
1535321087.62,46312,18.69,73800.8,3.85,2.81,2.65,0,*7B
1535321088.82,46313,18.69,73802.8,3.85,2.99,2.69,0,*7F
1535321090.05,46314,18.69,73804.8,3.83,2.89,2.65,0,*73
1535321091.27,46315,18.69,73798.3,3.83,2.89,2.65,0,*72
1535321092.52,46316,18.69,73802.0,3.83,2.81,2.59,0,*76
1535321093.72,46317,18.69,73802.0,3.85,2.89,2.65,0,*76
1535321094.95,46318,18.69,73804.0,3.83,2.91,2.69,0,*7A
1535321096.2,46319,18.69,73800.8,3.83,3.03,2.69,0,*71
1535321097.42,46320,18.69,73806.0,3.83,2.99,2.77,0,*76
1535321098.62,46321,18.69,73804.3,3.85,2.99,2.77,0,*71
1535321099.82,46322,18.69,73802.0,3.85,2.99,2.77,0,*72
1535321101.08,46323,18.69,73802.8,3.83,3.11,2.77,0,*74
1535321102.33,46324,18.69,73804.0,3.83,3.11,2.81,0,*7A
1535321103.59,46325,18.69,73804.0,3.83,3.03,2.81,0,*78
1535321104.82,46326,18.69,73804.0,3.83,2.91,2.77,0,*78
1535321106.04,46327,18.69,73804.8,3.83,2.99,2.69,0,*7E
1535321107.26,46328,18.69,73804.0,3.85,2.89,2.59,0,*75
1535321108.47,46329,18.69,73806.5,3.83,2.91,2.65,0,*74
1535321109.69,46330,18.69,73804.5,3.83,2.89,2.65,0,*75
1535321110.94,46331,18.69,73802.5,3.83,2.89,2.69,0,*78
1535321112.16,46332,18.69,73800.5,3.83,2.99,2.69,0,*7A
1535321113.36,46333,18.69,73804.0,3.85,2.99,2.69,0,*7D
1535321114.56,46334,18.69,73802.8,3.85,2.91,2.77,0,*7D
1535321115.76,46335,18.69,73804.0,3.85,2.99,2.69,0,*7B
1535321116.98,46336,18.69,73802.0,3.83,2.91,2.69,0,*76
1535321118.2,46337,18.69,73802.3,3.83,2.91,2.69,0,*77
1535321119.43,46338,18.69,73802.5,3.85,2.81,2.55,0,*70
1535321120.68,46339,18.69,73804.5,3.83,2.81,2.47,0,*74
1535321121.9,46340,18.69,73804.5,3.85,2.81,2.55,0,*7F
1535321123.15,46341,18.69,73804.8,3.83,2.69,2.47,0,*7D
1535321124.39,46342,18.69,73804.5,3.83,2.77,2.55,0,*72
1535321125.62,46343,18.69,73804.8,3.83,2.65,2.47,0,*73
1535321126.86,46344,18.69,73806.3,3.83,2.77,2.55,0,*74
1535321128.09,46345,18.69,73804.0,3.83,2.89,2.65,0,*77
1535321129.31,46346,18.69,73806.0,3.83,2.91,2.59,0,*72
1535321130.54,46347,18.69,73802.5,3.83,2.91,2.69,0,*70
1535321131.76,46348,18.69,73802.8,3.83,2.89,2.65,0,*7A
1535321132.97,46349,18.69,73806.3,3.81,2.89,2.61,0,*7D
1535321134.17,46350,18.69,73804.3,3.83,2.99,2.65,0,*72
1535321135.35,46351,18.69,73806.5,3.81,2.95,2.65,0,*7D
1535321136.55,46352,18.69,73808.0,3.81,2.85,2.65,0,*7F
1535321137.77,46353,18.69,73804.0,3.81,2.85,2.55,0,*7D
1535321138.99,46354,18.69,73806.3,3.81,2.77,2.55,0,*77
1535321140.16,46355,18.69,73806.5,3.81,2.61,2.31,0,*73
1535321141.37,46356,18.69,73806.8,3.81,2.65,2.39,0,*7C
1535321142.59,46357,18.69,73802.5,3.81,2.85,2.51,0,*7D
1535321143.84,46358,18.69,73800.8,3.83,2.89,2.59,0,*74
1535321145.07,46359,18.69,73804.8,3.83,2.89,2.65,0,*7A
1535321146.31,46360,18.69,73804.8,3.83,2.89,2.59,0,*7F
1535321147.56,46361,18.69,73804.5,3.83,2.89,2.59,0,*7E
1535321148.77,46362,18.69,73804.3,3.81,2.65,2.43,0,*76
1535321149.97,46363,18.69,73804.5,3.81,2.61,2.39,0,*7E
1535321151.19,46364,18.69,73806.3,3.81,2.73,2.43,0,*77
1535321152.41,46365,18.69,73806.5,3.81,2.77,2.55,0,*75
1535321153.63,46366,18.69,73810.8,3.81,2.73,2.43,0,*75
1535321154.86,46367,18.69,73804.3,3.79,2.51,2.27,0,*71
1535321156.07,46368,18.69,73804.0,3.81,2.65,2.39,0,*71
1535321157.27,46369,18.69,73806.5,3.81,2.65,2.39,0,*70
1535321158.49,46370,18.69,73804.0,3.81,2.73,2.43,0,*72
1535321159.72,46371,18.69,73804.3,3.81,2.81,2.55,0,*79
1535321160.95,46372,18.69,73806.5,3.81,2.77,2.51,0,*77
1535321162.2,46373,18.69,73804.0,3.79,2.73,2.51,0,*75
1535321163.45,46374,18.69,73802.3,3.79,2.81,2.51,0,*7F
1535321164.71,46375,18.69,73800.8,3.79,2.81,2.51,0,*7E
1535321165.94,46376,18.69,73804.8,3.81,2.77,2.51,0,*73
1535321167.17,46377,18.69,73804.3,3.79,2.61,2.39,0,*7C
1535321168.42,46378,18.69,73806.0,3.79,2.69,2.47,0,*72
1535321169.67,46379,18.69,73804.8,3.79,2.69,2.39,0,*7A
1535321170.91,46380,18.69,73802.0,3.79,2.73,2.47,0,*7E
1535321172.16,46381,18.69,73806.0,3.79,2.73,2.51,0,*78
1535321173.41,46382,18.69,73804.0,3.79,2.73,2.51,0,*7B
1535321174.67,46383,18.69,73806.5,3.79,2.73,2.51,0,*7A
1535321175.9,46384,18.69,73802.3,3.79,2.95,2.51,0,*75
1535321177.15,46385,18.69,73806.8,3.79,2.69,2.39,0,*79
1535321178.35,46386,18.69,73804.3,3.77,2.61,2.39,0,*7C
1535321179.52,46387,18.69,73802.3,3.77,2.61,2.35,0,*71
1535321180.69,46388,18.69,73802.8,3.77,2.61,2.35,0,*7E
1535321181.89,46389,18.69,73806.8,3.77,2.69,2.35,0,*77
1535321183.11,46390,18.69,73800.3,3.77,2.73,2.47,0,*71
1535321184.36,46391,18.69,73802.8,3.75,2.81,2.47,0,*7F
1535321185.58,46392,18.69,73802.0,3.77,2.73,2.39,0,*7A
1535321186.8,46393,18.69,73800.3,3.77,2.73,2.39,0,*7B
1535321188.03,46394,18.69,73800.5,3.77,2.81,2.47,0,*78
1535321189.28,46395,18.69,73804.5,3.75,2.81,2.55,0,*78
1535321190.5,46396,18.69,73804.5,3.77,2.85,2.51,0,*79
1535321191.73,46397,18.69,73800.5,3.77,2.85,2.59,0,*70
1535321192.96,46398,18.69,73804.5,3.79,2.91,2.59,0,*74
1535321194.21,46399,18.69,73802.5,3.79,2.85,2.39,0,*76
1535321195.42,46400,18.69,73804.0,3.77,2.73,2.47,0,*7F
1535321196.67,46401,18.69,73804.8,3.75,2.69,2.47,0,*77
1535321197.92,46402,18.69,73800.8,3.79,2.81,2.47,0,*7E
1535321199.15,46403,18.69,73802.5,3.77,2.81,2.39,0,*78
1535321200.37,46404,18.69,73806.3,3.77,2.73,2.47,0,*7B
1535321201.59,46405,18.69,73802.3,3.77,2.69,2.47,0,*71
1535321202.81,46406,18.69,73802.8,3.77,2.73,2.47,0,*79
1535321204.03,46407,18.69,73804.0,3.77,2.69,2.47,0,*73
1535321205.25,46408,18.69,73806.0,3.77,2.73,2.47,0,*77
1535321206.43,46409,18.69,73798.8,3.77,2.61,2.27,0,*73
1535321207.63,46410,18.69,73804.8,3.77,2.59,2.35,0,*73
1535321208.85,46411,18.69,73804.5,3.77,2.69,2.47,0,*74
1535321210.05,46412,18.69,73800.0,3.77,2.59,2.35,0,*71
1535321211.28,46413,18.69,73802.8,3.75,2.65,2.43,0,*7C
1535321212.52,46414,18.69,73802.8,3.75,2.69,2.47,0,*73
1535321213.77,46415,18.69,73804.5,3.75,2.77,2.47,0,*7D
1535321215.0,46416,18.69,73802.3,3.77,2.81,2.59,0,*7A
1535321216.22,46417,18.69,73806.0,3.77,2.85,2.59,0,*7F
1535321217.47,46418,18.69,73802.8,3.79,2.85,2.51,0,*76
1535321218.72,46419,18.69,73802.5,3.79,2.73,2.51,0,*7E
1535321219.96,46420,18.69,73804.8,3.77,2.81,2.51,0,*77
1535321221.2,46421,18.69,73804.3,3.75,2.77,2.47,0,*7A
1535321222.45,46422,18.69,73804.8,3.75,2.81,2.47,0,*70
1535321223.7,46423,18.69,73806.8,3.79,2.85,2.51,0,*7E
1535321224.93,46424,18.69,73804.8,3.77,2.59,2.43,0,*75
1535321226.18,46425,18.69,73800.8,3.75,2.59,2.43,0,*76
1535321227.41,46426,18.69,73800.0,3.77,2.69,2.47,0,*70
1535321228.66,46427,18.69,73804.0,3.79,2.81,2.51,0,*7E
1535321229.89,46428,18.69,73806.5,3.77,2.69,2.39,0,*77
1535321231.11,46429,18.69,73806.8,3.75,2.59,2.31,0,*7F
1535321232.33,46430,18.69,73804.0,3.77,2.73,2.39,0,*75
1535321233.53,46431,18.69,73800.5,3.77,2.61,2.39,0,*77
1535321234.76,46432,18.69,73800.3,3.75,2.65,2.43,0,*7F
1535321235.98,46433,18.69,73806.3,3.77,2.73,2.47,0,*7F
1535321237.23,46434,18.69,73808.3,3.75,2.81,2.55,0,*74
1535321238.43,46435,18.69,73804.5,3.75,2.91,2.65,0,*77
1535321239.63,46436,18.69,73806.3,3.77,2.95,2.69,0,*7E
1535321240.88,46437,18.69,73804.5,3.75,2.69,2.47,0,*72
1535321242.09,46438,18.69,73804.5,3.77,2.73,2.47,0,*74
1535321243.34,46439,18.69,73806.0,3.75,2.69,2.43,0,*78
1535321244.57,46440,18.69,73804.3,3.77,2.73,2.51,0,*7C
1535321245.78,46441,18.69,73800.5,3.77,2.81,2.61,0,*73
1535321247.0,46442,18.69,73800.5,3.77,2.85,2.59,0,*7F
1535321248.22,46443,18.69,73804.3,3.77,2.85,2.59,0,*7E
1535321249.47,46444,18.69,73806.0,3.75,2.69,2.43,0,*72
1535321250.69,46445,18.69,73802.5,3.77,2.69,2.47,0,*75
1535321251.92,46446,18.69,73802.3,3.77,2.73,2.51,0,*7A
1535321253.17,46447,18.69,73806.5,3.79,2.69,2.39,0,*70
1535321254.37,46448,18.69,73802.5,3.75,2.65,2.35,0,*73
1535321255.59,46449,18.69,73804.3,3.77,2.73,2.47,0,*72
1535321256.83,46450,18.69,73800.8,3.75,2.69,2.47,0,*73
1535321258.06,46451,18.69,73800.0,3.77,2.73,2.51,0,*7C
1535321259.29,46452,18.69,73800.5,3.77,2.81,2.59,0,*7A
1535321260.51,46453,18.69,73804.5,3.77,2.73,2.39,0,*70
1535321261.76,46454,18.69,73800.8,3.75,2.69,2.43,0,*73
1535321262.98,46455,18.69,73804.5,3.77,2.77,2.55,0,*78
1535321264.23,46456,18.69,73800.0,3.75,2.81,2.47,0,*73
1535321265.47,46457,18.69,73804.5,3.75,2.77,2.47,0,*7B
1535321266.71,46458,18.69,73806.8,3.77,2.81,2.51,0,*78
1535321267.95,46459,18.69,73802.5,3.75,2.77,2.43,0,*71
1535321269.2,46460,18.69,73802.0,3.75,2.77,2.43,0,*7B
1535321270.43,46461,18.69,73802.8,3.77,2.85,2.51,0,*76
1535321271.63,46462,18.69,73804.0,3.77,2.91,2.59,0,*78
1535321272.86,46463,18.69,73804.5,3.77,2.81,2.59,0,*78
1535321274.09,46464,18.69,73800.5,3.77,2.81,2.59,0,*7F
1535321275.34,46465,18.69,73802.0,3.75,2.81,2.59,0,*7C
1535321276.53,46466,18.69,73804.8,3.77,2.91,2.61,0,*77
1535321277.76,46467,18.69,73804.5,3.77,2.81,2.51,0,*74
1535321278.98,46468,18.69,73804.3,3.77,2.81,2.47,0,*7C
1535321280.23,46469,18.69,73802.5,3.75,2.69,2.43,0,*7D
1535321281.43,46470,18.69,73806.3,3.77,2.61,2.39,0,*72
1535321282.66,46471,18.69,73806.8,3.77,2.81,2.55,0,*77
1535321283.88,46472,18.69,73802.8,3.77,2.85,2.69,0,*7F
1535321285.1,46473,18.69,73800.3,3.77,2.85,2.51,0,*75
1535321286.35,46474,18.69,73800.0,3.75,2.89,2.69,0,*77
1535321287.55,46475,18.69,73800.5,3.75,2.99,2.65,0,*7B
1535321288.73,46476,18.69,73806.3,3.77,2.95,2.61,0,*72
1535321289.98,46477,18.69,73806.0,3.75,2.77,2.47,0,*79
1535321291.2,46478,18.63,73796.0,3.77,2.69,2.47,0,*7B
1535321292.42,46479,18.69,73800.5,3.75,2.69,2.35,0,*7D
1535321293.67,46480,18.69,73802.0,3.75,2.69,2.43,0,*7A
1535321294.9,46481,18.69,73802.8,3.77,2.81,2.51,0,*7C
1535321296.12,46482,18.69,73802.0,3.77,2.85,2.39,0,*75
1535321297.35,46483,18.69,73800.5,3.77,2.85,2.51,0,*7A
1535321298.61,46484,18.69,73800.5,3.79,2.81,2.51,0,*77
1535321299.83,46485,18.69,73800.0,3.77,2.73,2.51,0,*75
1535321301.05,46486,18.69,73800.0,3.77,2.73,2.47,0,*71
1535321302.3,46487,18.69,73802.5,3.79,2.73,2.39,0,*77
1535321303.5,46488,18.69,73800.8,3.77,2.61,2.39,0,*75
1535321304.72,46489,18.69,73796.8,3.77,2.73,2.39,0,*77
1535321305.97,46490,18.69,73802.8,3.75,2.77,2.43,0,*74
1535321307.2,46491,18.69,73804.0,3.77,2.81,2.51,0,*7D
1535321308.43,46492,18.69,73800.0,3.77,2.73,2.39,0,*7D
1535321309.65,46493,18.69,73800.5,3.77,2.69,2.39,0,*77
1535321310.88,46494,18.69,73800.8,3.77,2.59,2.39,0,*73
1535321312.05,46495,18.69,73800.8,3.77,2.61,2.35,0,*75
1535321313.27,46496,18.69,73800.8,3.75,2.59,2.31,0,*7B
1535321314.49,46497,18.69,73800.0,3.75,2.59,2.31,0,*7A
1535321315.71,46498,18.69,73800.8,3.75,2.69,2.35,0,*72
1535321316.93,46499,18.69,73800.5,3.75,2.69,2.35,0,*73
1535321318.15,46500,18.69,73804.0,3.77,2.73,2.47,0,*7E
1535321319.37,46501,18.69,73802.5,3.75,2.77,2.35,0,*7C
1535321320.59,46502,18.69,73798.8,3.77,2.73,2.47,0,*7C
1535321321.84,46503,18.69,73800.8,3.75,2.77,2.43,0,*7F
1535321323.04,46504,18.69,73800.8,3.77,2.77,2.35,0,*7B
1535321324.28,46505,18.69,73802.8,3.75,2.77,2.47,0,*7D
1535321325.51,46506,18.69,73802.8,3.77,2.81,2.59,0,*7A
1535321326.73,46507,18.69,73800.8,3.75,2.69,2.35,0,*75
1535321327.97,46508,18.69,73798.5,3.75,2.77,2.47,0,*70
1535321329.2,46509,18.69,73800.8,3.77,2.85,2.51,0,*79
1535321330.43,46510,18.69,73804.8,3.77,2.81,2.51,0,*75
1535321331.68,46511,18.69,73804.8,3.75,2.77,2.43,0,*7C
1535321332.9,46512,18.69,73800.8,3.77,2.85,2.47,0,*74
1535321334.11,46513,18.69,73802.3,3.77,2.91,2.59,0,*7F